GW6994 Weather Reports


Display with metric or nautical units.
time (UTC)temp
F
wind
direction
speed
MPH
gust
MPH
rain 1hr
in
rain 24hr
in
rain mn
in
humidity
%
barometer
mb
20260510191102 72 57 1.0 2.0 0.00 0.00 0.00 40 1060.3
20260510190600 72 57 1.0 2.0 0.00 0.00 0.00 40 1060.4
20260510190057 72 57 1.0 2.0 0.00 0.00 0.00 40 1060.3
20260510185554 72 57 1.0 2.0 0.00 0.00 0.00 40 1060.4
20260510185051 71 3 3.0 5.0 0.00 0.00 0.00 38 1060.2
20260510184548 71 60 3.0 6.0 0.00 0.00 0.00 41 1060.2
20260510184044 71 60 3.0 6.0 0.00 0.00 0.00 41 1060.2
20260510183539 71 60 3.0 6.0 0.00 0.00 0.00 41 1060.4
20260510183034 71 60 3.0 6.0 0.00 0.00 0.00 41 1060.4
20260510182532 71 60 3.0 6.0 0.00 0.00 0.00 41 1060.3
20260510182027 71 60 3.0 6.0 0.00 0.00 0.00 41 1060.2
20260510181525 71 60 3.0 6.0 0.00 0.00 0.00 41 1060.2
20260510181021 71 60 3.0 6.0 0.00 0.00 0.00 41 1060.0
20260510180518 71 60 3.0 6.0 0.00 0.00 0.00 41 1059.9
20260510180015 71 60 3.0 6.0 0.00 0.00 0.00 41 1060.0
20260510175510 71 60 3.0 6.0 0.00 0.00 0.00 41 1059.9
20260510175007 71 60 3.0 6.0 0.00 0.00 0.00 41 1059.7
20260510174505 70 60 3.0 4.0 0.00 0.00 0.00 44 1060.0
20260510174001 71 67 7.0 13.0 0.00 0.00 0.00 40 1059.7
20260510173457 69 80 5.0 5.0 0.00 0.00 0.00 46 1059.9
20260510172954 69 52 3.0 4.0 0.00 0.00 0.00 40 1059.9
20260510172449 69 52 3.0 4.0 0.00 0.00 0.00 40 1059.6
20260510171946 69 52 3.0 4.0 0.00 0.00 0.00 40 1059.6
20260510171443 69 52 3.0 11.0 0.00 0.00 0.00 40 1059.6
20260510170939 69 85 4.0 5.0 0.00 0.00 0.00 43 1059.5
20260510170436 69 85 4.0 5.0 0.00 0.00 0.00 43 1059.5
20260510165932 69 85 4.0 5.0 0.00 0.00 0.00 43 1059.6
20260510165428 69 85 4.0 5.0 0.00 0.00 0.00 43 1059.5
20260510164925 69 69 6.0 8.0 0.00 0.00 0.00 43 1059.3
20260510164423 68 71 8.0 10.0 0.00 0.00 0.00 41 1059.6
20260510163923 68 69 2.0 4.0 0.00 0.00 0.00 45 1059.5
20260510163420 68 69 2.0 4.0 0.00 0.00 0.00 45 1059.5
20260510162919 68 69 2.0 4.0 0.00 0.00 0.00 45 1059.5
20260510162417 68 69 2.0 4.0 0.00 0.00 0.00 45 1059.5
20260510161913 68 69 2.0 4.0 0.00 0.00 0.00 45 1059.6
20260510161408 68 69 2.0 4.0 0.00 0.00 0.00 45 1059.4
20260510160906 68 69 2.0 4.0 0.00 0.00 0.00 45 1059.4
20260510160403 68 69 2.0 4.0 0.00 0.00 0.00 45 1059.3
20260510155902 65 58 3.0 5.0 0.00 0.00 0.00 46 1059.2
20260510155359 65 58 3.0 5.0 0.00 0.00 0.00 46 1059.3
20260510154855 65 58 3.0 5.0 0.00 0.00 0.00 46 1059.2
20260510154352 65 66 6.0 11.0 0.00 0.00 0.00 48 1059.1
20260510153850 65 66 6.0 11.0 0.00 0.00 0.00 48 1059.1
20260510153347 65 66 6.0 11.0 0.00 0.00 0.00 48 1059.4
20260510152844 65 66 6.0 11.0 0.00 0.00 0.00 48 1059.2
20260510152341 65 66 6.0 11.0 0.00 0.00 0.00 48 1059.5
20260510151837 65 66 6.0 11.0 0.00 0.00 0.00 48 1059.4
20260510151335 65 66 6.0 11.0 0.00 0.00 0.00 48 1059.4
20260510150831 65 66 6.0 11.0 0.00 0.00 0.00 48 1059.4
20260510150327 65 66 6.0 11.0 0.00 0.00 0.00 48 1059.9
20260510145823 65 66 6.0 11.0 0.00 0.00 0.00 48 1059.6
20260510145319 65 66 6.0 11.0 0.00 0.00 0.00 48 1059.5
20260510144816 65 75 3.0 10.0 0.00 0.00 0.00 51 1059.5
20260510144313 65 75 3.0 10.0 0.00 0.00 0.00 51 1059.7
20260510143813 65 75 3.0 10.0 0.00 0.00 0.00 51 1059.5
20260510143309 65 75 3.0 10.0 0.00 0.00 0.00 51 1059.4
20260510142806 61 74 10.0 11.0 0.00 0.00 0.00 54 1059.5
20260510142305 61 74 10.0 11.0 0.00 0.00 0.00 54 1059.3
20260510141800 61 74 10.0 11.0 0.00 0.00 0.00 54 1059.3
20260510141258 61 74 10.0 11.0 0.00 0.00 0.00 54 1059.4
20260510140755 61 74 10.0 11.0 0.00 0.00 0.00 54 1059.2
20260510140250 61 74 10.0 11.0 0.00 0.00 0.00 54 1059.0
20260510135749 61 74 10.0 11.0 0.00 0.00 0.00 54 1058.7
20260510135245 61 74 10.0 11.0 0.00 0.00 0.00 54 1058.7
20260510134743 61 67 2.0 13.0 0.00 0.00 0.00 56 1058.4
20260510134240 61 65 8.0 8.0 0.00 0.00 0.00 59 1058.4
20260510133736 61 74 6.0 8.0 0.00 0.00 0.00 58 1058.6
20260510133231 61 65 6.0 11.0 0.00 0.00 0.00 61 1058.3
20260510132728 63 68 4.0 6.0 0.00 0.00 0.00 60 1058.1
20260510132225 64 79 7.0 9.0 0.00 0.00 0.00 57 1058.3
20260510131722 64 66 4.0 6.0 0.00 0.00 0.00 60 1058.2
20260510131220 62 72 4.0 11.0 0.00 0.00 0.00 59 1058.0
20260510130716 63 82 4.0 6.0 0.00 0.00 0.00 61 1058.0
20260510130214 62 91 4.0 12.0 0.00 0.00 0.00 63 1058.1
20260510125709 62 74 8.0 14.0 0.00 0.00 0.00 61 1057.7
20260510125206 63 86 2.0 5.0 0.00 0.00 0.00 65 1057.7
20260510124703 63 91 5.0 5.0 0.00 0.00 0.00 66 1057.7
20260510124201 62 89 1.0 4.0 0.00 0.00 0.00 68 1057.6
20260510123655 61 82 2.0 8.0 0.00 0.00 0.00 71 1057.5
20260510123152 61 87 1.0 11.0 0.00 0.00 0.00 71 1057.4
20260510122648 61 49 2.0 8.0 0.00 0.00 0.00 72 1057.4
20260510122144 60 94 5.0 16.0 0.00 0.00 0.00 74 1057.5
20260510121641 60 91 1.0 9.0 0.00 0.00 0.00 75 1057.1
20260510121138 60 73 2.0 6.0 0.00 0.00 0.00 76 1057.3
20260510120636 59 98 5.0 6.0 0.00 0.00 0.00 77 1056.9
20260510120131 59 102 4.0 5.0 0.00 0.00 0.00 79 1057.0
20260510115628 59 92 2.0 5.0 0.00 0.00 0.00 82 1056.9
20260510115126 59 65 2.0 6.0 0.00 0.00 0.00 82 1056.7
20260510114621 59 121 2.0 4.0 0.00 0.00 0.00 82 1056.6
20260510114117 59 91 2.0 4.0 0.00 0.00 0.00 83 1056.3
20260510113613 58 130 1.0 4.0 0.00 0.00 0.00 86 1056.4
20260510113110 58 102 1.0 4.0 0.00 0.00 0.00 86 1056.1
20260510112607 58 19 1.0 5.0 0.00 0.00 0.00 86 1056.2
20260510112104 59 109 0.0 4.0 0.00 0.00 0.00 86 1056.2
20260510111600 58 49 1.0 5.0 0.00 0.00 0.00 86 1056.0
20260510111056 59 74 0.0 3.0 0.00 0.00 0.00 86 1056.3
20260510110552 59 76 2.0 3.0 0.00 0.00 0.00 85 1056.3
20260510110049 59 85 2.0 4.0 0.00 0.00 0.00 86 1056.3
20260510105544 59 83 2.0 4.0 0.00 0.00 0.00 86 1056.3
20260510105039 59 75 2.0 5.0 0.00 0.00 0.00 87 1056.1
20260510104536 59 93 2.0 4.0 0.00 0.00 0.00 88 1056.2
20260510104032 59 96 1.0 4.0 0.00 0.00 0.00 87 1056.2
20260510103530 59 91 2.0 3.0 0.00 0.00 0.00 87 1055.8
20260510103026 59 15 2.0 6.0 0.00 0.00 0.00 88 1055.8
20260510102521 58 31 0.0 5.0 0.00 0.00 0.00 88 1055.5
20260510102018 58 200 1.0 2.0 0.00 0.00 0.00 88 1055.5
20260510101515 59 48 0.0 3.0 0.00 0.00 0.00 87 1055.4
20260510101014 59 80 3.0 5.0 0.00 0.00 0.00 86 1055.5
20260510100509 59 89 2.0 4.0 0.00 0.00 0.00 86 1055.3
20260510100007 59 82 1.0 4.0 0.00 0.00 0.00 86 1055.2
20260510095502 59 104 2.0 3.0 0.00 0.00 0.00 87 1055.4
20260510095001 59 78 1.0 4.0 0.00 0.00 0.00 87 1055.4
20260510094456 59 93 2.0 3.0 0.00 0.00 0.00 87 1055.3
20260510093952 59 61 1.0 2.0 0.00 0.00 0.00 86 1055.1
20260510093448 59 77 2.0 4.0 0.00 0.00 0.00 86 1054.9
20260510092945 59 86 2.0 5.0 0.00 0.00 0.00 86 1054.9
20260510092442 59 93 3.0 3.0 0.00 0.00 0.00 86 1054.8
20260510091942 59 86 3.0 3.0 0.00 0.00 0.00 86 1054.7
20260510091439 59 83 0.0 3.0 0.00 0.00 0.00 87 1054.6
20260510090936 58 107 0.0 2.0 0.00 0.00 0.00 88 1054.5
20260510090433 58 81 4.0 4.0 0.00 0.00 0.00 90 1054.4
20260510085928 57 89 0.0 3.0 0.00 0.00 0.00 92 1054.4
20260510085424 57 116 0.0 1.0 0.00 0.00 0.00 92 1054.5
20260510084919 57 54 0.0 2.0 0.00 0.00 0.00 92 1054.5
20260510084416 56 89 0.0 1.0 0.00 0.00 0.00 93 1054.3
20260510083913 56 73 0.0 1.0 0.00 0.00 0.00 93 1054.3
20260510083409 56 128 2.0 2.0 0.00 0.00 0.00 93 1054.3
20260510082905 56 97 1.0 2.0 0.00 0.00 0.00 93 1054.3
20260510082402 56 93 0.0 1.0 0.00 0.00 0.00 93 1054.3
20260510081901 55 109 0.0 1.0 0.00 0.00 0.00 93 1054.2
20260510081358 56 45 0.0 2.0 0.00 0.00 0.00 93 1054.1
20260510080855 56 116 1.0 1.0 0.00 0.00 0.00 93 1054.1
20260510080348 56 139 3.0 5.0 0.00 0.00 0.00 93 1054.0
20260510075846 56 122 1.0 2.0 0.00 0.00 0.00 92 1054.0
20260510075343 56 89 0.0 1.0 0.00 0.00 0.00 92 1053.9
20260510074839 56 95 1.0 2.0 0.00 0.00 0.00 92 1053.6
20260510074337 56 144 1.0 2.0 0.00 0.00 0.00 92 1054.0
20260510073833 56 108 1.0 2.0 0.00 0.00 0.00 91 1054.0
20260510073329 56 94 2.0 2.0 0.00 0.00 0.00 91 1053.8
20260510072825 56 102 2.0 3.0 0.00 0.00 0.00 91 1053.9
20260510072323 57 117 2.0 3.0 0.00 0.00 0.00 90 1053.8
20260510071818 57 101 1.0 2.0 0.00 0.00 0.00 90 1053.8
20260510071314 57 94 2.0 2.0 0.00 0.00 0.00 89 1053.9
20260510070814 57 99 1.0 1.0 0.00 0.00 0.00 87 1054.0
20260510070310 57 53 0.0 2.0 0.00 0.00 0.00 86 1054.1
20260510065810 57 47 0.0 1.0 0.00 0.00 0.00 87 1053.9
20260510065307 57 55 0.0 2.0 0.00 0.00 0.00 88 1053.8
20260510064804 57 47 1.0 1.0 0.00 0.00 0.00 89 1053.8
20260510064302 57 141 0.0 1.0 0.00 0.00 0.00 88 1053.6
20260510063757 57 143 2.0 2.0 0.00 0.00 0.00 88 1053.5
20260510063253 58 107 1.0 2.0 0.00 0.00 0.00 86 1053.6
20260510062750 58 134 0.0 2.0 0.00 0.00 0.00 85 1053.6
20260510062246 59 106 0.0 1.0 0.00 0.00 0.00 83 1053.4
20260510061741 59 97 1.0 2.0 0.00 0.00 0.00 82 1053.5
20260510061239 59 218 0.0 0.0 0.00 0.00 0.00 83 1053.5
20260510060735 59 214 0.0 0.0 0.00 0.00 0.00 84 1053.6
20260510060232 58 223 1.0 2.0 0.00 0.00 0.00 83 1053.5
20260510055728 58 315 0.0 1.0 0.00 0.00 0.00 85 1053.4
20260510055227 58 230 0.0 0.0 0.00 0.00 0.00 84 1053.4
20260510054727 59 154 0.0 1.0 0.00 0.00 0.00 83 1053.1
20260510054223 60 132 1.0 3.0 0.00 0.00 0.00 83 1053.4
20260510053722 60 167 2.0 3.0 0.00 0.00 0.00 81 1053.4
20260510053219 61 224 0.0 1.0 0.00 0.00 0.00 77 1053.1
20260510052715 61 129 0.0 1.0 0.00 0.00 0.00 78 1053.3
20260510052212 62 94 1.0 1.0 0.00 0.00 0.00 78 1053.5
20260510051707 62 63 0.0 1.0 0.00 0.00 0.00 75 1053.3
20260510051204 63 34 0.0 2.0 0.00 0.00 0.00 72 1053.6
20260510050701 63 44 0.0 1.0 0.00 0.00 0.00 69 1053.5
20260510050158 62 37 0.0 1.0 0.00 0.00 0.00 70 1053.5
20260510045655 62 0 0.0 1.0 0.00 0.00 0.00 72 1053.3
20260510045152 62 22 0.0 0.0 0.00 0.00 0.00 73 1053.1
20260510044648 62 266 0.0 2.0 0.00 0.00 0.00 73 1053.1
20260510044145 62 89 0.0 2.0 0.00 0.00 0.00 74 1053.0
20260510043641 63 91 1.0 3.0 0.00 0.00 0.00 75 1053.0
20260510043138 65 126 1.0 3.0 0.00 0.00 0.00 68 1052.9
20260510042635 66 217 0.0 2.0 0.00 0.00 0.00 62 1052.8
20260510042131 66 197 0.0 2.0 0.00 0.00 0.00 63 1052.7
20260510041628 66 253 0.0 1.0 0.00 0.00 0.00 62 1052.9
20260510041125 65 296 2.0 2.0 0.00 0.00 0.00 64 1052.6
20260510040623 65 238 1.0 2.0 0.00 0.00 0.00 65 1052.4
20260510040119 62 247 2.0 2.0 0.00 0.00 0.00 72 1052.7
20260510035615 61 64 1.0 4.0 0.00 0.00 0.00 74 1052.6
20260510035115 60 39 3.0 3.0 0.00 0.00 0.00 81 1052.0
20260510034612 61 7 2.0 2.0 0.00 0.00 0.00 80 1051.9
20260510034109 61 336 0.0 1.0 0.00 0.00 0.00 80 1052.1
20260510033605 61 233 0.0 1.0 0.00 0.00 0.00 80 1051.8
20260510033103 62 203 0.0 2.0 0.00 0.00 0.00 77 1051.9
20260510032600 62 240 0.0 2.0 0.00 0.00 0.00 76 1051.8
20260510032055 62 207 0.0 1.0 0.00 0.00 0.00 75 1051.8
20260510031550 61 55 0.0 1.0 0.00 0.00 0.00 76 1051.6
20260510031046 60 322 0.0 0.0 0.00 0.00 0.00 80 1051.5
20260510030542 60 224 0.0 1.0 0.00 0.00 0.00 82 1051.6
20260510030039 61 207 2.0 2.0 0.00 0.00 0.00 80 1051.6
20260510025536 62 227 2.0 2.0 0.00 0.00 0.00 75 1051.5
20260510025034 62 119 0.0 1.0 0.00 0.00 0.00 74 1051.5
20260510024530 62 96 0.0 0.0 0.00 0.00 0.00 74 1051.5
20260510024026 63 229 0.0 1.0 0.00 0.00 0.00 74 1051.4
20260510023522 64 221 1.0 1.0 0.00 0.00 0.00 71 1051.3
20260510023020 65 130 0.0 1.0 0.00 0.00 0.00 69 1051.2
20260510022519 66 269 0.0 1.0 0.00 0.00 0.00 67 1051.1
20260510022014 66 28 0.0 0.0 0.00 0.00 0.00 67 1051.2
20260510021511 66 256 0.0 1.0 0.00 0.00 0.00 66 1050.7
20260510021008 66 256 0.0 0.0 0.00 0.00 0.00 65 1050.8
20260510020502 66 66 0.0 0.0 0.00 0.00 0.00 65 1050.3
20260510015958 66 230 0.0 1.0 0.00 0.00 0.00 66 1050.5
20260510015454 66 210 1.0 2.0 0.00 0.00 0.00 65 1050.3
20260510014949 68 180 0.0 0.0 0.00 0.00 0.00 62 1050.3
20260510014447 69 244 0.0 1.0 0.00 0.00 0.00 60 1050.2
20260510013944 69 261 0.0 0.0 0.00 0.00 0.00 59 1050.2
20260510013438 70 309 0.0 0.0 0.00 0.00 0.00 57 1050.2
20260510012934 70 235 0.0 0.0 0.00 0.00 0.00 57 1050.1
20260510012429 71 309 0.0 1.0 0.00 0.00 0.00 55 1049.8
20260510011924 71 249 0.0 1.0 0.00 0.00 0.00 54 1050.1
20260510011419 71 15 0.0 0.0 0.00 0.00 0.00 54 1049.8
20260510010916 71 117 0.0 0.0 0.00 0.00 0.00 54 1049.6
20260510010413 72 205 0.0 0.0 0.00 0.00 0.00 54 1049.6
20260510005910 74 205 0.0 0.0 0.00 0.00 0.00 51 1049.6
20260510005406 77 217 0.0 0.0 0.00 0.00 0.00 49 1049.7
20260510004903 79 233 0.0 0.0 0.00 0.00 0.00 46 1049.5
20260510004401 80 229 0.0 1.0 0.00 0.00 0.00 45 1049.5
20260510003858 80 217 0.0 1.0 0.00 0.00 0.00 46 1049.5
20260510003355 79 199 1.0 2.0 0.00 0.00 0.00 45 1049.4
20260510002854 80 193 1.0 2.0 0.00 0.00 0.00 46 1049.5
20260510002352 79 203 1.0 2.0 0.00 0.00 0.00 49 1049.4
20260510001848 79 183 1.0 2.0 0.00 0.00 0.00 51 1049.6
20260510001346 78 215 1.0 3.0 0.00 0.00 0.00 49 1049.2
20260510000842 78 226 2.0 2.0 0.00 0.00 0.00 49 1049.4
20260510000341 78 210 1.0 2.0 0.00 0.00 0.00 49 1049.4
20260509235836 78 213 2.0 4.0 0.00 0.00 0.00 48 1049.3
20260509235333 79 219 2.0 3.0 0.00 0.00 0.00 44 1049.4
20260509234828 80 218 2.0 5.0 0.00 0.00 0.00 46 1049.5
20260509234326 79 212 2.0 4.0 0.00 0.00 0.00 46 1049.3
20260509233824 78 241 3.0 4.0 0.00 0.00 0.00 43 1049.6
20260509233321 79 232 3.0 5.0 0.00 0.00 0.00 44 1049.4
20260509232817 81 213 2.0 4.0 0.00 0.00 0.00 43 1049.4
20260509232314 81 214 5.0 6.0 0.00 0.00 0.00 42 1049.2
20260509231810 80 223 4.0 6.0 0.00 0.00 0.00 41 1049.3
20260509231308 81 217 3.0 6.0 0.00 0.00 0.00 43 1049.2
20260509230805 78 220 5.0 8.0 0.00 0.00 0.00 42 1049.2
20260509230302 79 216 4.0 10.0 0.00 0.00 0.00 41 1049.3
20260509225757 80 224 3.0 6.0 0.00 0.00 0.00 44 1049.3
20260509225254 80 220 5.0 9.0 0.00 0.00 0.00 40 1049.3
20260509224749 82 263 4.0 8.0 0.00 0.00 0.00 39 1049.4
20260509224247 82 235 4.0 7.0 0.00 0.00 0.00 39 1049.4
20260509223743 82 204 5.0 9.0 0.00 0.00 0.00 37 1049.3
20260509223240 82 284 7.0 11.0 0.00 0.00 0.00 38 1049.4
20260509222737 82 217 2.0 10.0 0.00 0.00 0.00 38 1049.3
20260509222232 83 186 2.0 5.0 0.00 0.00 0.00 39 1049.4
20260509221728 82 253 4.0 6.0 0.00 0.00 0.00 35 1049.4
20260509221225 82 265 5.0 8.0 0.00 0.00 0.00 36 1049.2
20260509220720 83 274 7.0 8.0 0.00 0.00 0.00 35 1049.2
20260509220218 83 236 4.0 6.0 0.00 0.00 0.00 39 1049.4
20260509215713 83 284 4.0 6.0 0.00 0.00 0.00 38 1049.4
20260509215210 82 264 5.0 11.0 0.00 0.00 0.00 36 1049.2
20260509214707 83 272 4.0 5.0 0.00 0.00 0.00 41 1049.2
20260509214204 82 242 4.0 6.0 0.00 0.00 0.00 37 1049.3
20260509213701 82 254 6.0 9.0 0.00 0.00 0.00 41 1049.3
20260509213156 82 294 7.0 7.0 0.00 0.00 0.00 36 1049.3
20260509212654 82 271 6.0 8.0 0.00 0.00 0.00 36 1049.4
20260509212151 83 282 6.0 9.0 0.00 0.00 0.00 36 1049.6
20260509211646 82 220 5.0 6.0 0.00 0.00 0.00 35 1049.4
20260509211143 82 277 9.0 12.0 0.00 0.00 0.00 37 1049.5
20260509210641 81 258 6.0 12.0 0.00 0.00 0.00 36 1049.5
20260509210138 82 249 6.0 8.0 0.00 0.00 0.00 35 1049.8
20260509205633 82 244 6.0 11.0 0.00 0.00 0.00 39 1049.6
20260509205133 82 280 4.0 8.0 0.00 0.00 0.00 42 1049.6
20260509204629 82 247 4.0 5.0 0.00 0.00 0.00 38 1049.6
20260509204126 82 242 8.0 11.0 0.00 0.00 0.00 36 1049.8
20260509203622 81 260 5.0 13.0 0.00 0.00 0.00 37 1049.8
20260509203120 81 288 5.0 12.0 0.00 0.00 0.00 41 1050.1
20260509202620 81 290 9.0 10.0 0.00 0.00 0.00 42 1049.9
20260509202115 81 264 9.0 13.0 0.00 0.00 0.00 41 1050.1
20260509201610 81 229 6.0 11.0 0.00 0.00 0.00 40 1050.4
20260509201108 81 286 4.0 10.0 0.00 0.00 0.00 45 1050.1
20260509200603 81 239 6.0 10.0 0.00 0.00 0.00 44 1050.3
20260509200059 81 259 6.0 12.0 0.00 0.00 0.00 45 1050.3
20260509195554 82 240 5.0 10.0 0.00 0.00 0.00 46 1050.4
20260509195050 81 263 5.0 11.0 0.00 0.00 0.00 44 1050.3
20260509194549 81 256 11.0 13.0 0.00 0.00 0.00 42 1050.3
20260509194047 81 283 7.0 10.0 0.00 0.00 0.00 46 1050.3
20260509193542 80 254 11.0 14.0 0.00 0.00 0.00 42 1050.4
20260509193039 81 248 8.0 12.0 0.00 0.00 0.00 44 1050.3
20260509192536 80 324 4.0 11.0 0.00 0.00 0.00 42 1050.2
20260509192031 80 259 4.0 16.0 0.00 0.00 0.00 45 1050.3
20260509191525 81 310 5.0 6.0 0.00 0.00 0.00 46 1050.3